sat.trackr.live / text

‹ back to catalog

STARLINK-34785

NORAD 65354 · 2025-190D

PAYLOAD ACTIVE UNKNOWN

§ Identity

Operator
Country
US
Launch date
2025-08-28
Launch site
AFETR
Launch vehicle
Mass (kg)
RCS (m²)

Purposes: comms

External: N2YO · Heavens-Above · Gunter

§ Orbital elements

Epoch: 2026-09-20T12:17:43.806048Z

Period
93.85 min
Inclination
53.1601°
Eccentricity
0.0001234
Mean motion
15.34402389 rev/d
Perigee alt
461.9 km
Apogee alt
463.5 km
Semi-major
6,840.8 km
B*
6.4233e-4
RAAN
339.6924°
Arg perigee
95.8895°
Mean anomaly
264.2249°
Rev number
5,916

§ Raw data

STARLINK-347851 65354U 25190D   26263.51231257  .00021390  00000+0  64233-3 0  99902 65354  53.1601 339.6924 0001234  95.8895 264.2249 15.34402389 59160

JSON: /api/v1/satellites/65354 · /tle

For live sub-satellite position, see the globe view (requires WebGL).

§ Visibility from observer

Set your observer location to see the next 7 days of passes ≥ 10°. The values pass through the URL so the page stays shareable.

No JS? Fill the form by hand. The geolocation button needs JavaScript.